{"data":{"norad_id":55604,"epoch":"2026-05-24T19:39:46.941984Z","epoch_age_seconds":90066,"freshness":"FRESH","line1":"1 55604U 23020AM  26144.81929331  .00003125  00000+0  12308-3 0  9997","line2":"2 55604  43.0019 269.4630 0001487 266.6803  93.3879 15.27569697180858","mean_motion":15.27569697,"eccentricity":0.0001487,"inclination_deg":43.0019,"raan_deg":269.463,"arg_perigee_deg":266.6803,"mean_anomaly_deg":93.3879,"bstar":0.00012308,"rev_number":18085,"period_min":94.267384514633,"perigee_km":482.0596841415,"apogee_km":484.10021006157,"semimajor_km":6861.2169471015,"source":"CELESTRAK","updated_at":"2026-05-25T13:38:17.842136Z"}}